Andrews, TX

6:12 AM CDT on July 26, 2017 (GMT -0500)
Andrews

Weather History for KE11 - September, 2013

Change the Weather History Date:

Monday, September 30, 2013

  Actual Average (KMAF) Record (KMAF)
Temperature  
Mean Temperature 74 °F -  
Max Temperature 91 °F 81 °F 104 °F (1977)
Min Temperature 56 °F 57 °F 41 °F (1984)
Cooling Degree Days 8    
Growing Degree Days 24 (Base 50)    
Moisture  
Dew Point 37 °F    
Average Humidity 32    
Maximum Humidity 65    
Minimum Humidity 11    
Precipitation  
Precipitation 0.00 in - - ()
Sea Level Pressure  
Sea Level Pressure 29.92 in    
Wind  
Wind Speed 9 mph (WSW)    
Max Wind Speed 14 mph    
Max Gust Speed 20 mph    
Visibility 10 miles    
Events      
Averages and records for this station are not official NWS values.
T = Trace of Precipitation, MM = Missing Value Source: NWS Daily Summary

Daily Weather History Graph

Daily Weather History Graph

Search for Another Location

Airport or City:

Trip Planner

Search our weather history database for the weather conditions in past years. The results will help you decide how hot, cold, wet, or windy it might be!

Date:

Astronomy

Sep. 30, 2013 Rise Set
Actual Time 7:43 AM CDT 7:35 PM CDT
Civil Twilight 7:19 AM CDT 8:00 PM CDT
Nautical Twilight 6:50 AM CDT 8:28 PM CDT
Astronomical Twilight 6:22 AM CDT 8:57 PM CDT
Moon 3:35 AM CDT (9/30) 4:56 PM CDT (9/30)
Length of Visible Light 12h 41m
Length of Day
11h 52m
Waning Crescent, 19% of the Moon is Illuminated
Sep 30
Waning Crescent
Oct 4
New
Oct 11
First Quarter
Oct 18
Full
Oct 26
Last Quarter

Hourly Weather History & Observations

Time (CDT) Temp. Dew Point Humidity Pressure Visibility Wind Dir Wind Speed Gust Speed Precip Events Conditions
12:15 AM 64.0 °F 43.0 °F 46% 30.03 in 10.0 mi SSW 9.2 mph - N/A   Clear
12:35 AM 63.3 °F 42.8 °F 47% 30.02 in 10.0 mi SSW 8.1 mph - N/A   Clear
12:55 AM 63.5 °F 42.4 °F 46% 30.02 in 10.0 mi SSW 8.1 mph - N/A   Clear
1:15 AM 63.5 °F 42.3 °F 46% 30.01 in 10.0 mi SSW 9.2 mph - N/A   Clear
1:35 AM 63.9 °F 42.3 °F 45% 30.01 in 10.0 mi SW 8.1 mph - N/A   Clear
1:55 AM 63.3 °F 42.3 °F 46% 30.01 in 10.0 mi SW 9.2 mph - N/A   Clear
2:15 AM 63.9 °F 41.9 °F 45% 30.00 in 10.0 mi SSW 10.4 mph - N/A   Clear
2:35 AM 63.3 °F 42.4 °F 46% 30.00 in 10.0 mi SW 10.4 mph - N/A   Clear
2:55 AM 62.8 °F 43.3 °F 49% 29.99 in 10.0 mi SSW 9.2 mph - N/A   Clear
3:15 AM 61.7 °F 43.7 °F 52% 29.98 in 10.0 mi SW 10.4 mph - N/A   Clear
3:35 AM 60.4 °F 43.9 °F 54% 29.98 in 10.0 mi SW 10.4 mph - N/A   Clear
3:55 AM 59.9 °F 44.2 °F 56% 29.97 in 10.0 mi SSW 9.2 mph - N/A   Clear
4:15 AM 60.6 °F 44.6 °F 56% 29.96 in 10.0 mi SW 9.2 mph - N/A   Clear
4:35 AM 61.0 °F 44.8 °F 55% 29.96 in 10.0 mi SSW 10.4 mph - N/A   Clear
4:55 AM 60.3 °F 45.0 °F 57% 29.95 in 10.0 mi SSW 10.4 mph - N/A   Clear
5:15 AM 59.4 °F 45.0 °F 59% 29.95 in 10.0 mi SW 9.2 mph - N/A   Clear
5:35 AM 58.5 °F 45.0 °F 61% 29.95 in 10.0 mi SW 9.2 mph - N/A   Clear
5:55 AM 58.1 °F 45.3 °F 62% 29.95 in 10.0 mi SW 9.2 mph - N/A   Clear
6:15 AM 57.4 °F 45.5 °F 65% 29.95 in 10.0 mi SW 10.4 mph - N/A   Clear
6:35 AM 56.5 °F 45.0 °F 65% 29.95 in 10.0 mi SW 9.2 mph - N/A   Clear
6:55 AM 56.3 °F 44.6 °F 65% 29.95 in 10.0 mi WSW 8.1 mph - N/A   Clear
7:15 AM 57.2 °F 43.7 °F 61% 29.95 in 10.0 mi WSW 10.4 mph - N/A   Clear
7:35 AM 57.7 °F 43.0 °F 58% 29.95 in 10.0 mi WSW 9.2 mph - N/A   Clear
7:55 AM 57.7 °F 43.0 °F 58% 29.95 in 10.0 mi West 6.9 mph - N/A   Clear
8:15 AM 58.1 °F 43.3 °F 58% 29.95 in 10.0 mi West 8.1 mph - N/A   Clear
8:35 AM 60.3 °F 42.3 °F 51% 29.95 in 10.0 mi West 6.9 mph - N/A   Clear
8:55 AM 61.9 °F 42.8 °F 50% 29.95 in 10.0 mi WSW 8.1 mph - N/A   Clear
9:15 AM 64.6 °F 42.8 °F 45% 29.96 in 10.0 mi West 4.6 mph - N/A   Clear
9:35 AM 67.5 °F 42.1 °F 40% 29.96 in 10.0 mi West 9.2 mph - N/A   Clear
9:55 AM 70.9 °F 43.2 °F 37% 29.96 in 10.0 mi West 8.1 mph - N/A   Clear
10:15 AM 74.5 °F 40.8 °F 30% 29.96 in 10.0 mi West 9.2 mph - N/A   Clear
10:35 AM 77.5 °F 38.8 °F 25% 29.96 in 10.0 mi West 9.2 mph - N/A   Clear
10:55 AM 79.7 °F 37.6 °F 22% 29.95 in 10.0 mi West 10.4 mph 17.3 mph N/A   Clear
11:15 AM 81.5 °F 37.2 °F 20% 29.95 in 10.0 mi West 12.7 mph - N/A   Clear
11:35 AM 82.9 °F 36.9 °F 19% 29.95 in 10.0 mi West 13.8 mph 18.4 mph N/A   Clear
11:55 AM 84.2 °F 37.9 °F 19% 29.94 in 10.0 mi West 11.5 mph 17.3 mph N/A   Clear
12:15 PM 85.3 °F 35.8 °F 17% 29.93 in 10.0 mi West 12.7 mph 16.1 mph N/A   Clear
12:35 PM 86.2 °F 34.5 °F 16% 29.93 in 10.0 mi West 6.9 mph - N/A   Clear
12:55 PM 87.6 °F 32.9 °F 14% 29.92 in 10.0 mi West 8.1 mph - N/A   Clear
1:15 PM 88.3 °F 29.3 °F 12% 29.91 in 10.0 mi WSW 6.9 mph - N/A   Clear
1:35 PM 88.9 °F 31.5 °F 13% 29.91 in 10.0 mi West 11.5 mph 18.4 mph N/A   Clear
1:55 PM 89.8 °F 27.9 °F 11% 29.90 in 10.0 mi WSW 11.5 mph 17.3 mph N/A   Clear
2:15 PM 90.3 °F 28.9 °F 11% 29.89 in 10.0 mi West 11.5 mph 17.3 mph N/A   Clear
2:35 PM 90.3 °F 30.0 °F 12% 29.88 in 10.0 mi West 8.1 mph 18.4 mph N/A   Clear
2:55 PM 91.6 °F 30.6 °F 11% 29.87 in 10.0 mi West 11.5 mph 17.3 mph N/A   Clear
3:15 PM 91.0 °F 30.0 °F 11% 29.86 in 10.0 mi West 10.4 mph - N/A   Clear
3:35 PM 91.4 °F 30.2 °F 11% 29.86 in 10.0 mi WSW 8.1 mph 17.3 mph N/A   Clear
3:55 PM 91.9 °F 32.2 °F 12% 29.85 in 10.0 mi WSW 11.5 mph 17.3 mph N/A   Clear
4:15 PM 91.6 °F 31.8 °F 12% 29.85 in 10.0 mi WSW 8.1 mph 19.6 mph N/A   Clear
4:35 PM 91.6 °F 32.0 °F 12% 29.84 in 10.0 mi WSW 10.4 mph 17.3 mph N/A   Clear
4:55 PM 91.2 °F 31.6 °F 12% 29.84 in 10.0 mi West 8.1 mph 18.4 mph N/A   Clear
5:15 PM 91.4 °F 31.6 °F 12% 29.84 in 10.0 mi SSW 12.7 mph 16.1 mph N/A   Clear
5:35 PM 90.7 °F 30.4 °F 12% 29.84 in 10.0 mi West 11.5 mph 18.4 mph N/A   Clear
5:55 PM 90.7 °F 31.1 °F 12% 29.84 in 10.0 mi West 10.4 mph 16.1 mph N/A   Clear
6:15 PM 89.8 °F 30.6 °F 12% 29.84 in 10.0 mi WSW 9.2 mph - N/A   Clear
6:35 PM 89.1 °F 29.5 °F 12% 29.84 in 10.0 mi West 6.9 mph - N/A   Clear
6:55 PM 88.3 °F 28.6 °F 12% 29.84 in 10.0 mi West 5.8 mph - N/A   Clear
7:15 PM 86.7 °F 30.0 °F 13% 29.84 in 10.0 mi West 3.5 mph - N/A   Clear
7:35 PM 84.2 °F 31.5 °F 15% 29.84 in 10.0 mi Calm Calm - N/A   Clear
7:55 PM 82.2 °F 34.2 °F 18% 29.84 in 10.0 mi Calm Calm - N/A   Clear
8:15 PM 77.7 °F 34.5 °F 21% 29.85 in 10.0 mi Calm Calm - N/A   Clear
8:35 PM 75.7 °F 32.5 °F 21% 29.85 in 10.0 mi Calm Calm - N/A   Clear
8:55 PM 74.3 °F 36.7 °F 25% 29.85 in 10.0 mi SSW 5.8 mph - N/A   Clear
9:15 PM 70.9 °F 39.6 °F 32% 29.86 in 10.0 mi Calm Calm - N/A   Clear
9:35 PM 73.8 °F 32.4 °F 22% 29.86 in 10.0 mi SSW 6.9 mph - N/A   Clear
9:55 PM 74.3 °F 32.0 °F 21% 29.87 in 10.0 mi SW 5.8 mph - N/A   Clear
10:15 PM 73.6 °F 32.0 °F 22% 29.87 in 10.0 mi WSW 6.9 mph - N/A   Clear
10:35 PM 72.7 °F 32.7 °F 23% 29.87 in 10.0 mi WSW 6.9 mph - N/A   Clear
10:55 PM 73.0 °F 32.5 °F 23% 29.87 in 10.0 mi WSW 8.1 mph - N/A   Clear
11:15 PM 72.7 °F 34.3 °F 25% 29.87 in 10.0 mi WSW 8.1 mph - N/A   Clear
11:35 PM 69.4 °F 33.6 °F 27% 29.88 in 10.0 mi SW 8.1 mph - N/A   Clear
11:55 PM 67.5 °F 32.9 °F 28% 29.89 in 10.0 mi South 9.2 mph - N/A   Clear